{"data":{"norad_id":59737,"epoch":"2026-05-24T23:01:32.255904Z","epoch_age_seconds":78752,"freshness":"FRESH","line1":"1 59737U 24090H   26144.95940111  .00001280  00000+0  56029-4 0  9999","line2":"2 59737  43.0033 112.8502 0001177 272.6277  87.4440 15.27581624115100","mean_motion":15.27581624,"eccentricity":0.0001177,"inclination_deg":43.0033,"raan_deg":112.8502,"arg_perigee_deg":272.6277,"mean_anomaly_deg":87.444,"bstar":5.6029e-5,"rev_number":11510,"period_min":94.266648496945,"perigee_km":482.23667217258,"apogee_km":483.85179423488,"semimajor_km":6861.1812332037,"source":"CELESTRAK","updated_at":"2026-05-25T13:38:19.051739Z"}}